Morrisville, VT

1:49 PM EST on December 06, 2019 (GMT -0500)
Morrisville Stowe State

Weather History for KMVL - August, 2019

Change the Weather History Date:

Sunday, August 11, 2019

  Actual Average Record
Temperature  
Mean Temperature 62 °F 66 °F  
Max Temperature 76 °F 78 °F 90 °F (2016)
Min Temperature 47 °F 54 °F 45 °F (1996)
Degree Days  
Heating Degree Days 3 2  
Month to date heating degree days 17 17  
Since 1 June heating degree days 170 170  
Since 1 July heating degree days 27 47  
Cooling Degree Days 0 3  
Month to date cooling degree days 18 33  
Year to date cooling degree days 200 201  
Since 1 June cooling degree days 199 193  
Growing Degree Days 10 (Base 50)    
Moisture  
Dew Point 50 °F    
Average Humidity 71    
Maximum Humidity 100    
Minimum Humidity 41    
Precipitation  
Precipitation 0.00 in 0.13 in 1.74 in (1998)
Month to date precipitation 1.49 1.55  
Year to date precipitation 24.93 21.28  
Sea Level Pressure  
Sea Level Pressure 29.93 in    
Wind  
Wind Speed 3 mph (NW)    
Max Wind Speed 15 mph    
Max Gust Speed 22 mph    
Visibility 5 miles    
Events Fog    
T = Trace of Precipitation, MM = Missing Value Source: NWS Daily Summary

Daily Weather History Graph

Daily Weather History Graph

Search for Another Location

Airport or City:

Astronomy

Aug. 11, 2019 Rise Set
Actual Time 5:48 AM EDT 8:02 PM EDT
Civil Twilight 5:16 AM EDT 8:34 PM EDT
Nautical Twilight 4:36 AM EDT 9:13 PM EDT
Astronomical Twilight 3:51 AM EDT 9:57 PM EDT
Moon 5:44 PM EDT (8/11) 2:01 AM EDT (8/11)
Length of Visible Light 15h 18m
Length of Day
14h 14m
Waxing Gibbous, 87% of the Moon is Illuminated
Aug 11
Waxing Gibbous
Aug 15
Full
Aug 23
Last Quarter
Aug 30
New
Sep 5
First Quarter

Hourly Weather History & Observations

Time (EDT) Temp. Dew Point Humidity Pressure Visibility Wind Dir Wind Speed Gust Speed Precip Events Conditions
12:03 AM 51.1 °F 50.0 °F 96% 29.90 in 5.0 mi NW 3.5 mph - N/A   Partly Cloudy
12:10 AM 51.1 °F 50.0 °F 96% 29.90 in 1.8 mi Calm Calm - N/A   Scattered Clouds
12:13 AM 51.1 °F 50.0 °F 96% 29.90 in 1.0 mi Calm Calm - N/A   Mist
12:27 AM 50.0 °F 48.9 °F 96% 29.90 in 0.8 mi Calm Calm - N/A   Mist
12:54 AM 50.0 °F 48.9 °F 96% 29.91 in 0.5 mi Calm Calm - N/A Fog Fog
1:18 AM 48.9 °F 48.0 °F 97% 29.90 in 1.2 mi Calm Calm - N/A   Mostly Cloudy
1:37 AM 50.0 °F 48.0 °F 93% 29.90 in 10.0 mi Calm Calm - N/A   Partly Cloudy
1:54 AM 48.9 °F 48.0 °F 97% 29.91 in 1.8 mi Calm Calm - N/A   Scattered Clouds
1:57 AM 48.9 °F 48.0 °F 97% 29.90 in 0.8 mi Calm Calm - N/A   Mist
2:10 AM 48.9 °F 46.9 °F 93% 29.90 in 1.2 mi Calm Calm - N/A   Mostly Cloudy
2:14 AM 48.0 °F 46.9 °F 96% 29.90 in 3.0 mi Calm Calm - N/A   Mostly Cloudy
2:24 AM 48.0 °F 46.9 °F 96% 29.90 in 1.5 mi Calm Calm - N/A   Mostly Cloudy
2:32 AM 48.0 °F 46.9 °F 96% 29.90 in 1.0 mi Calm Calm - N/A   Mist
2:50 AM 48.2 °F 46.4 °F 93% 29.90 in 0.5 mi Calm Calm - N/A Fog Fog
2:54 AM 48.0 °F 46.9 °F 96% 29.91 in 0.8 mi Calm Calm - N/A   Mist
2:57 AM 48.0 °F 46.9 °F 96% 29.90 in 1.2 mi Calm Calm - N/A   Overcast
3:38 AM 48.0 °F 46.9 °F 96% 29.91 in 3.0 mi Calm Calm - N/A   Overcast
3:46 AM 48.0 °F 46.9 °F 96% 29.91 in 1.2 mi Calm Calm - N/A   Overcast
3:48 AM 48.2 °F 46.4 °F 93% 29.91 in 0.8 mi NNE 3.5 mph - N/A   Overcast
3:54 AM 48.0 °F 46.9 °F 96% 29.92 in 0.5 mi Calm Calm - N/A Fog Fog
4:54 AM 46.9 °F 46.9 °F 100% 29.93 in 0.8 mi Calm Calm - N/A   Mist
5:12 AM 46.9 °F 46.0 °F 97% 29.92 in 1.2 mi Calm Calm - N/A   Overcast
5:16 AM 48.0 °F 46.9 °F 96% 29.92 in 3.0 mi Calm Calm - N/A   Overcast
5:23 AM 48.0 °F 46.9 °F 96% 29.93 in 1.8 mi Calm Calm - N/A   Overcast
5:28 AM 48.0 °F 46.9 °F 96% 29.93 in 0.8 mi Calm Calm - N/A   Overcast
5:33 AM 48.0 °F 46.9 °F 96% 29.94 in 1.0 mi Calm Calm - N/A   Overcast
5:39 AM 48.0 °F 46.9 °F 96% 29.94 in 2.0 mi North 4.6 mph - N/A   Overcast
5:42 AM 48.0 °F 46.9 °F 96% 29.94 in 3.0 mi North 3.5 mph - N/A   Overcast
5:49 AM 48.2 °F 46.4 °F 93% 29.94 in 8.0 mi Calm Calm - N/A   Overcast
5:54 AM 48.0 °F 46.9 °F 96% 29.96 in 6.0 mi Calm Calm - N/A   Mostly Cloudy
6:04 AM 48.0 °F 46.9 °F 96% 29.95 in 1.8 mi Calm Calm - N/A   Mostly Cloudy
6:11 AM 48.0 °F 46.9 °F 96% 29.95 in 3.0 mi SW 4.6 mph - N/A   Mostly Cloudy
6:20 AM 48.0 °F 46.9 °F 96% 29.95 in 10.0 mi Calm Calm - N/A   Scattered Clouds
6:54 AM 50.0 °F 48.9 °F 96% 29.97 in 10.0 mi Calm Calm - N/A   Partly Cloudy
7:54 AM 54.0 °F 53.1 °F 97% 29.97 in 10.0 mi North 4.6 mph - N/A   Clear
8:54 AM 61.0 °F 57.0 °F 87% 29.97 in 10.0 mi Calm Calm - N/A   Partly Cloudy
9:54 AM 63.0 °F 53.1 °F 70% 29.97 in 10.0 mi Calm Calm - N/A   Mostly Cloudy
10:54 AM 68.0 °F 50.0 °F 52% 29.96 in 10.0 mi NW 11.5 mph 20.7 mph N/A   Partly Cloudy
11:54 AM 71.1 °F 52.0 °F 51% 29.95 in 10.0 mi NNW 8.1 mph - N/A   Partly Cloudy
12:54 PM 73.0 °F 52.0 °F 48% 29.94 in 10.0 mi NW 6.9 mph - N/A   Mostly Cloudy
1:54 PM 73.0 °F 51.1 °F 46% 29.94 in 10.0 mi Variable 6.9 mph - N/A   Partly Cloudy
2:54 PM 73.0 °F 50.0 °F 44% 29.94 in 10.0 mi West 8.1 mph - N/A   Partly Cloudy
3:54 PM 75.0 °F 50.0 °F 41% 29.93 in 10.0 mi NW 8.1 mph - N/A   Clear
4:54 PM 73.0 °F 52.0 °F 48% 29.93 in 10.0 mi Variable 3.5 mph - N/A   Clear
5:54 PM 73.0 °F 53.1 °F 49% 29.93 in 10.0 mi Calm Calm - N/A   Clear
6:54 PM 73.9 °F 55.0 °F 52% 29.92 in 10.0 mi Calm Calm - N/A   Clear
7:54 PM 64.0 °F 57.9 °F 80% 29.92 in 10.0 mi Calm Calm - N/A   Clear
8:54 PM 61.0 °F 57.0 °F 87% 29.93 in 10.0 mi South 3.5 mph - N/A   Clear
9:54 PM 62.1 °F 57.0 °F 84% 29.94 in 10.0 mi South 3.5 mph - N/A   Overcast
10:54 PM 63.0 °F 57.0 °F 81% 29.93 in 10.0 mi Calm Calm - N/A   Mostly Cloudy
11:54 PM 60.1 °F 55.9 °F 86% 29.94 in 10.0 mi SSW 4.6 mph - N/A   Overcast